Location: Eschentzwiller
(47.7125°N, 7.3981°E)
Time: 04:16:08
(UTC+00:00)

ATLAS 2AS CENTAUR R/B - Pass Details

Date: 27 October 2020
Orbit: 939 x 1273 km, 63.7° (Epoch: 23 November)

Event Time Altitude Azimuth Distance (km) Brightness Sun altitude
Rises 17:52:01 0° 315° (NW) 4,195 6.5 -16.0°
Reaches altitude 10° 17:55:11 10° 323° (NW) 3,192 5.7 -16.5°
Maximum altitude 18:02:10 36° 29° (NNE) 1,761 3.6 -17.7°
Enters shadow 18:05:17 26° 73° (ENE) 2,084 3.7 -18.2°
